SCP
0 0 0 0 0 0 0 0 0 0 0 0 0 0 0 0 0 -0 0 0 0 0 -0 0 0 -0 0 -0 0 -0 -0 -0 0 0 -0 0 0 -0 -0 0 0 0 0 0
0 0 0 0 0 0 0 0 0 0 0 0 0 0 0 0 0 -0 0 -0 0 -0 -0 0 0 0 -0 -0 -0 0 -0 -0 0 0 0 -0 0 0 -0 0 0 0 0 0
0 0 0 0 0 0 0 0 0 0 0 0 0 -0 0 0 0 -0 -0 -0 -0 -0 0 -0 -0 -0 -0 -0 -0 -0 -0 -0 -0 0 0 -0 0 -0 -0 -0 0 0 0 0
0 0 0 0 0 0 0 0 0 0 0 0 -0 -0 0 -0 -0 0 -0 0 0 -0 -0 0 -0 0 0 0 0 0 0 0 0 0 0 -0 -0 0 -0 -0 0 0 0 0
0 0 0 0 0 0 0 0 0 0 0 0 -0 0 0 0 0 0 0 0 0 0 0 0 -0 -0 -0 -0 -0 0 -0 0 -0 -0 -0 0 -0 0 -0 -0 0 0 0 0
0 0 0 0 0 0 0 0 0 0 0 0 0 0 0 0 -0 0 0 0 0 -0 -0 -0 -0 -0 -0 -0 -0 0 0 0 -0 0 -0 -0 0 -0 -0 0 0 0 0 0
0 0 0 0 0 0 0 0 0 0 0 0 0 0 0 0 0 0 -0 -0 0 0 -0 -0 -0 -0 -0 -0 -0 -0 0 0 0 0 0 0 0 0 -0 0 0 0 0 0
0 0 0 0 0 0 0 0 0 0 0 0 0 0 0 0 0 0 0 0 0 -0 -0 0 0 0 0 0 0 -0 -0 0 0 0 0 0 0 0 -0 0 0 1 0 0
0 0 0 0 0 0 0 0 0 0 0 0 0 0 0 0 0 0 0 -0 0 0 0 0 0 0 0 0 0 0 -0 -0 0 0 0 0 0 0 0 0 0 0 0 0
0 0 0 0 -0 -0 0 0 0 0 0 0 0 0 0 0 0 0 -0 0 0 0 0 0 0 0 0 0 0 0 0 0 0 0 0 0 0 0 0 0 0 0 0 0
0 0 0 0 0 0 0 0 0 0 0 -0 0 0 0 0 0 0 0 0 0 0 0 0 0 0 0 0 0 0 0 0 0 0 0 0 0 0 0 0 0 0 0 0
0 0 0 0 0 0 0 0 0 0 0 -0 -0 -0 -0 -0 0 0 0 0 0 0 0 0 0 0 0 0 0 0 0 0 0 0 0 0 0 0 0 0 0 0 0 0
0 0 0 0 0 -0 0 0 0 0 0 -0 -0 0 0 0 0 0 0 0 0 0 0 0 0 0 0 0 0 0 0 0 0 0 0 0 0 0 0 0 0 0 0 0
0 0 0 0 0 0 -0 0 0 0 -0 -0 -0 0 0 -0 0 -0 -0 -0 -0 0 0 0 0 0 0 0 0 0 0 0 0 0 0 0 0 0 0 0 -0 -0 -0 -0
0 0 0 -0 -0 -0 0 0 0 0 0 0 -0 -0 0 0 -0 -0 -0 -0 -0 0 0 0 0 0 0 0 0 0 0 0 0 0 0 0 0 0 0 -0 -0 0 -0 0
0 -0 -0 -0 -0 -0 0 0 0 -0 0 -0 0 0 -0 -0 -0 -0 -0 0 0 0 0 0 0 0 0 0 0 0 0 0 0 0 0 0 0 0 0 -0 -0 0 -0 0
-0 -0 -0 -0 -0 0 0 0 -0 0 0 -0 -0 -0 0 -0 -0 -0 -0 0 0 0 0 0 0 0 0 0 0 0 0 0 0 0 0 0 0 0 0 -0 -0 -0 -0 -0
-0 -0 -0 -0 0 0 -0 -0 -0 0 -0 -0 0 0 -0 -0 -0 -0 -0 0 0 0 0 0 0 0 0 0 0 0 0 0 0 0 0 0 0 -0 -0 -0 -0 -0 -0 -0
-0 -0 -0 0 0 -0 0 0 0 0 0 0 -0 0 0 0 -0 0 0 0 0 0 0 0 0 0 0 0 0 0 0 0 0 -0 0 0 0 -0 -0 -0 -0 -0 -0 -0
-0 -0 0 0 0 0 0 -0 -0 0 0 -0 0 0 0 0 0 0 0 0 0 0 0 0 0 0 0 0 -0 -0 0 0 -0 -0 -0 0 -0 -0 -0 -0 -0 -0 -0 -0
0 0 0 -0 -0 -0 -0 -0 -0 -0 -0 0 -0 -0 -0 0 0 0 0 0 0 0 0 0 0 0 0 0 0 0 0 0 -0 -0 0 -0 -0 -0 -0 -0 -0 -0 -0 -0
0 0 -0 0 -0 -0 -0 -0 -0 -0 -0 0 -0 -0 0 0 0 0 0 0 0 0 0 0 0 0 0 0 0 0 0 -0 -0 -0 -0 -0 -0 -0 -0 -0 -0 -0 -0 -0
0 0 0 0 -0 0 0 0 0 0 0 0 -0 -0 0 -0 0 0 0 0 0 0 0 0 0 0 0 0 0 0 -0 -0 -0 -0 -0 -0 -0 -0 -0 -0 -0 -0 -0 -0
0 0 0 0 -0 0 0 0 0 -0 -0 -0 -0 0 0 0 0 0 0 0 0 0 0 0 0 0 0 0 0 0 0 -0 -0 -0 -0 -0 -0 -0 -0 -0 -0 -0 -0 -0
0 -0 0 0 0 0 0 -0 -0 -0 -0 -0 -0 0 0 0 0 0 0 0 0 0 0 0 0 0 0 0 0 0 0 -0 -0 -0 -0 -0 -0 -0 -0 -0 0 0 0 0
0 -0 0 0 0 0 0 -0 -0 -0 -0 -0 0 0 0 0 0 0 0 0 0 0 0 0 0 0 0 0 0 0 0 0 0 -0 -0 -0 -0 -0 -0 -0 0 0 0 0
-0 0 0 0 0 -0 -0 -0 -0 -0 -0 -0 -0 0 0 0 0 0 0 0 0 0 0 0 0 0 0 0 0 0 0 0 0 0 -0 -0 -0 -0 -0 -0 0 0 0 0
Wind_Speed_500mb
53 54 56 66 71 77 61 29 10 38 44 20 19 18 27 36 29 43 12 14 10 9 36 21 17 17 11 34 26 24 12 10 11 7 7 15 22 46 57 27 32 29 21 20
49 45 50 58 65 64 55 32 15 25 39 15 22 27 23 26 41 33 9 16 12 17 23 18 22 22 33 29 41 12 10 8 10 6 4 14 7 33 30 41 40 24 18 16
45 38 42 50 59 57 45 25 12 17 15 30 31 36 23 31 42 26 33 29 28 24 40 25 27 52 19 51 44 44 23 16 17 15 6 5 36 43 38 44 27 29 27 30
42 34 37 42 52 55 36 26 10 10 16 23 30 33 31 43 31 16 38 15 28 40 17 46 24 36 45 34 15 19 10 13 21 22 21 14 16 35 47 51 41 35 17 31
39 35 32 36 44 48 24 16 11 13 23 35 33 26 24 36 38 32 32 29 49 49 39 37 47 33 13 16 15 16 15 7 15 29 32 30 19 39 65 54 48 22 16 43
39 33 31 32 35 46 21 27 24 14 26 21 25 20 40 43 46 25 40 43 41 44 41 31 49 56 43 35 24 12 10 6 8 8 31 40 23 47 54 57 39 25 18 38
41 35 26 25 28 37 35 33 24 11 15 26 27 48 43 50 48 43 68 65 31 32 84 78 48 40 33 30 30 27 15 15 6 10 5 14 18 42 47 35 23 23 19 38
41 33 22 19 26 33 35 32 25 8 14 41 34 44 44 62 55 41 50 54 52 69 43 9 11 5 7 15 18 30 31 9 8 7 6 20 36 46 38 38 17 14 39 40
41 33 26 21 21 32 35 31 29 22 16 10 53 44 47 34 31 30 31 65 52 21 5 6 7 7 9 6 8 13 20 18 5 5 6 7 20 30 33 42 23 17 39 46
39 35 31 23 25 31 34 40 26 24 22 38 35 40 33 28 15 12 37 33 21 16 6 6 6 7 17 9 6 6 4 5 12 13 3 10 14 17 42 19 18 37 54 60
39 37 34 26 30 30 32 42 35 27 26 76 40 35 53 57 50 11 42 24 4 6 11 7 8 6 8 8 6 1 1 5 2 7 6 10 31 3 9 11 40 55 57 51
39 37 33 28 28 29 32 46 37 39 41 71 74 56 45 50 51 45 11 16 17 9 6 5 8 6 6 7 4 4 5 9 5 12 7 11 16 32 27 30 49 54 66 61
40 34 34 30 32 32 30 43 39 35 37 56 21 16 20 31 35 28 16 11 11 14 15 6 5 8 4 6 9 4 12 17 7 6 21 23 37 44 48 62 65 60 64 69
40 31 33 32 36 37 27 36 34 35 21 12 19 31 37 30 26 29 48 53 54 49 30 8 4 5 8 10 8 9 10 8 9 11 11 38 50 52 57 63 68 69 64 66
34 30 33 34 39 34 29 27 23 16 15 11 37 52 13 32 36 35 27 38 50 37 6 3 3 7 7 8 10 10 25 10 4 6 33 40 38 47 57 70 69 73 84 75
31 31 35 38 30 24 17 5 3 9 14 13 9 27 27 43 44 30 16 35 15 8 8 5 9 10 3 9 7 20 40 50 17 15 52 58 59 61 59 75 78 81 89 79
29 34 38 31 19 13 7 6 7 17 24 9 12 14 17 38 32 21 25 39 18 19 10 20 16 30 18 7 9 21 23 33 43 48 58 57 46 49 62 75 73 73 70 64
30 36 30 18 8 8 6 10 12 19 16 9 7 10 22 28 29 17 21 25 23 37 18 17 12 13 13 11 9 24 41 55 65 68 77 69 61 61 61 62 63 67 63 58
32 26 16 5 2 3 3 15 17 19 12 9 6 10 11 30 26 12 18 13 8 12 10 12 15 9 13 17 33 41 41 38 51 54 55 55 58 56 53 54 52 60 55 51
22 13 4 2 3 20 9 3 4 5 6 8 7 11 10 24 26 10 15 8 5 5 8 4 8 8 29 31 34 39 40 39 39 50 46 46 48 46 45 47 45 48 48 46
15 13 5 13 7 3 4 4 5 5 6 9 10 16 18 14 13 8 11 6 8 4 7 4 7 6 10 19 28 22 22 28 34 37 37 37 40 42 44 43 43 43 42 44
18 15 15 11 3 4 6 3 5 6 3 6 15 23 17 11 7 7 8 7 5 7 10 5 6 8 13 13 19 26 29 33 36 35 39 38 39 39 41 41 41 41 42 41
4 5 6 5 3 4 2 3 2 5 9 10 24 16 11 5 4 7 5 7 7 6 6 5 6 14 14 7 12 22 28 34 37 38 38 40 40 37 37 41 39 39 39 36
3 5 7 5 4 2 2 4 5 12 13 20 24 16 7 7 5 5 7 7 4 4 4 6 6 16 11 9 8 22 28 31 35 37 37 38 38 39 36 35 36 36 36 34
5 5 6 4 4 9 10 10 14 16 15 17 15 8 8 5 2 4 5 3 5 5 5 3 14 13 6 12 20 29 28 30 32 33 34 35 34 34 35 33 33 33 33 31
5 7 8 6 11 6 5 8 14 12 18 15 8 5 2 5 8 4 7 3 4 2 2 10 14 7 5 12 20 28 28 30 30 30 32 32 32 33 35 34 33 32 32 29
6 6 8 12 11 14 11 13 12 16 17 6 4 4 7 6 2 4 5 6 8 5 1 5 10 4 10 16 21 35 34 27 29 31 30 28 29 31 32 33 30 29 28 28
Wind_Direction_500mb
358 360 4 358 358 356 3 349 345 348 4 25 23 354 335 312 335 330 315 294 296 321 332 319 303 326 269 330 350 320 270 297 301 287 213 121 220 220 199 206 205 216 209 166
356 1 4 359 358 2 355 349 320 350 12 18 357 339 320 345 331 336 316 299 278 292 322 317 288 328 319 332 336 305 337 272 299 163 84 167 202 226 227 212 217 200 205 128
356 358 1 360 358 3 7 352 341 354 344 6 355 335 326 332 338 320 336 296 300 314 320 306 298 300 311 330 311 318 282 249 262 290 341 98 198 202 217 227 211 233 230 134
353 356 354 356 358 358 15 15 11 326 320 339 331 323 312 332 347 314 316 297 307 318 301 309 272 322 319 317 321 353 30 287 283 275 280 190 207 223 205 223 209 225 152 153
349 356 347 350 358 0 3 357 332 307 283 320 317 319 325 324 323 318 301 298 307 307 293 278 288 293 293 279 329 357 352 274 308 281 255 231 229 223 189 206 221 219 149 128
341 342 347 344 354 359 343 338 330 282 294 325 324 324 324 306 319 312 300 300 300 298 299 296 281 274 263 257 278 302 284 286 305 278 295 159 187 198 185 192 201 197 238 134
337 338 352 345 347 351 336 331 324 307 297 318 317 307 307 315 314 305 298 300 295 286 309 303 285 260 244 234 235 230 258 297 287 302 280 152 149 166 176 157 181 91 105 127
333 335 351 336 331 339 333 327 319 279 287 311 298 323 314 310 310 306 298 306 309 308 310 298 312 201 209 214 219 214 219 246 280 303 279 119 155 166 184 175 152 141 129 119
328 330 333 324 315 326 325 315 318 288 296 263 324 314 307 306 317 310 305 320 323 315 295 290 306 343 348 124 131 224 198 211 259 356 250 86 156 157 181 142 165 153 131 128
324 321 328 329 320 316 316 316 314 287 269 283 309 304 300 299 289 277 303 337 330 334 308 303 324 311 357 335 24 151 167 189 232 246 50 57 9 292 118 159 157 136 135 138
321 319 324 332 332 319 310 302 313 292 278 292 281 292 292 288 284 286 302 325 69 294 341 353 347 298 327 316 350 287 132 278 314 345 87 86 341 243 181 106 132 138 135 130
317 314 318 325 324 323 310 302 304 294 287 276 295 288 278 269 278 287 268 266 297 273 317 358 305 275 292 310 10 216 31 26 53 39 39 328 12 72 79 120 122 117 121 123
314 310 315 325 326 317 305 302 301 294 300 310 282 299 298 290 283 263 251 273 267 265 286 282 271 280 278 319 19 88 62 35 57 103 7 46 71 87 92 96 99 114 116 122
313 307 313 322 323 318 302 299 295 296 287 280 293 315 306 302 303 273 272 283 298 288 289 237 269 281 301 11 42 38 345 15 45 79 136 60 58 80 94 101 105 108 113 120
309 308 314 320 321 312 307 297 285 271 257 295 299 311 323 340 330 316 292 288 283 290 294 286 279 288 306 3 56 28 340 320 51 82 63 82 72 86 97 100 102 110 111 108
308 311 317 321 319 311 335 284 252 333 294 307 296 312 302 336 348 359 6 348 331 287 292 301 290 9 46 45 53 349 22 56 80 90 86 85 87 88 98 102 102 103 105 107
314 315 318 319 306 278 234 307 298 309 312 267 287 295 311 330 351 353 9 356 350 1 14 10 20 33 42 47 43 352 30 82 95 103 95 72 85 91 99 102 103 103 102 103
317 318 316 311 293 268 274 251 272 302 305 268 283 292 316 357 346 356 4 333 7 16 357 8 5 28 40 44 33 82 83 82 82 90 95 99 101 99 99 102 105 101 101 104
324 322 321 309 248 255 256 266 270 285 269 298 287 312 325 341 346 345 354 341 25 15 9 13 9 14 45 25 50 67 69 92 105 101 102 103 99 101 102 103 103 103 105 106
338 5 334 239 200 299 296 345 200 235 234 241 266 290 290 332 342 355 354 309 33 29 45 51 44 19 36 55 67 77 81 89 102 105 103 104 102 103 103 103 107 109 113 114
5 348 331 302 319 15 247 245 235 202 242 213 263 317 326 351 338 325 342 308 337 35 35 14 56 42 23 59 74 50 73 97 101 101 105 106 109 111 109 108 109 110 114 115
324 310 315 335 323 250 264 246 198 236 322 316 325 336 333 325 325 284 1 331 319 46 331 30 63 17 62 94 56 75 93 98 101 104 106 108 109 113 113 115 115 117 117 117
342 290 273 245 238 258 355 346 275 277 348 340 333 334 350 301 305 283 314 341 50 285 39 67 62 35 68 105 76 94 101 106 107 107 109 111 111 113 116 116 117 119 118 119
314 275 271 267 191 213 40 306 305 300 307 319 324 332 321 352 308 339 313 21 303 62 57 75 64 32 38 121 123 128 118 115 113 113 114 114 115 115 116 118 122 123 121 119
266 258 258 223 351 297 293 296 291 285 290 311 325 297 315 9 303 359 329 55 56 27 49 348 4 339 325 138 146 149 142 136 126 124 121 118 119 121 121 123 125 125 123 123
241 239 260 253 268 274 275 317 314 317 322 310 249 246 277 19 335 4 41 321 47 75 280 311 323 318 178 164 160 163 154 150 142 136 130 126 127 130 128 128 128 128 128 128
237 256 268 288 290 276 291 308 306 312 312 321 329 35 43 317 302 75 15 14 348 17 286 353 5 337 159 166 164 169 158 151 154 148 141 134 132 132 131 130 132 131 131 129
Wind_Speed_850mb
53 54 56 66 71 77 61 29 10 38 44 20 19 18 27 36 29 43 12 14 10 9 36 21 17 17 11 34 26 24 12 10 11 7 7 15 22 46 57 27 32 29 21 20
49 45 50 58 65 64 55 32 15 25 39 15 22 27 23 26 41 33 9 16 12 17 23 18 22 22 33 29 41 12 10 8 10 6 4 14 7 33 30 41 40 24 18 16
45 38 42 50 59 57 45 25 12 17 15 30 31 36 23 31 42 26 33 29 28 24 40 25 27 52 19 51 44 44 23 16 17 15 6 5 36 43 38 44 27 29 27 30
42 34 37 42 52 55 36 26 10 10 16 23 30 33 31 43 31 16 38 15 28 40 17 46 24 36 45 34 15 19 10 13 21 22 21 14 16 35 47 51 41 35 17 31
39 35 32 36 44 48 24 16 11 13 23 35 33 26 24 36 38 32 32 29 49 49 39 37 47 33 13 16 15 16 15 7 15 29 32 30 19 39 65 54 48 22 16 43
39 33 31 32 35 46 21 27 24 14 26 21 25 20 40 43 46 25 40 43 41 44 41 31 49 56 43 35 24 12 10 6 8 8 31 40 23 47 54 57 39 25 18 38
41 35 26 25 28 37 35 33 24 11 15 26 27 48 43 50 48 43 68 65 31 32 84 78 48 40 33 30 30 27 15 15 6 10 5 14 18 42 47 35 23 23 19 38
41 33 22 19 26 33 35 32 25 8 14 41 34 44 44 62 55 41 50 54 52 69 43 9 11 5 7 15 18 30 31 9 8 7 6 20 36 46 38 38 17 14 39 40
41 33 26 21 21 32 35 31 29 22 16 10 53 44 47 34 31 30 31 65 52 21 5 6 7 7 9 6 8 13 20 18 5 5 6 7 20 30 33 42 23 17 39 46
39 35 31 23 25 31 34 40 26 24 22 38 35 40 33 28 15 12 37 33 21 16 6 6 6 7 17 9 6 6 4 5 12 13 3 10 14 17 42 19 18 37 54 60
39 37 34 26 30 30 32 42 35 27 26 76 40 35 53 57 50 11 42 24 4 6 11 7 8 6 8 8 6 1 1 5 2 7 6 10 31 3 9 11 40 55 57 51
39 37 33 28 28 29 32 46 37 39 41 71 74 56 45 50 51 45 11 16 17 9 6 5 8 6 6 7 4 4 5 9 5 12 7 11 16 32 27 30 49 54 66 61
40 34 34 30 32 32 30 43 39 35 37 56 21 16 20 31 35 28 16 11 11 14 15 6 5 8 4 6 9 4 12 17 7 6 21 23 37 44 48 62 65 60 64 69
40 31 33 32 36 37 27 36 34 35 21 12 19 31 37 30 26 29 48 53 54 49 30 8 4 5 8 10 8 9 10 8 9 11 11 38 50 52 57 63 68 69 64 66
34 30 33 34 39 34 29 27 23 16 15 11 37 52 13 32 36 35 27 38 50 37 6 3 3 7 7 8 10 10 25 10 4 6 33 40 38 47 57 70 69 73 84 75
31 31 35 38 30 24 17 5 3 9 14 13 9 27 27 43 44 30 16 35 15 8 8 5 9 10 3 9 7 20 40 50 17 15 52 58 59 61 59 75 78 81 89 79
29 34 38 31 19 13 7 6 7 17 24 9 12 14 17 38 32 21 25 39 18 19 10 20 16 30 18 7 9 21 23 33 43 48 58 57 46 49 62 75 73 73 70 64
30 36 30 18 8 8 6 10 12 19 16 9 7 10 22 28 29 17 21 25 23 37 18 17 12 13 13 11 9 24 41 55 65 68 77 69 61 61 61 62 63 67 63 58
32 26 16 5 2 3 3 15 17 19 12 9 6 10 11 30 26 12 18 13 8 12 10 12 15 9 13 17 33 41 41 38 51 54 55 55 58 56 53 54 52 60 55 51
22 13 4 2 3 20 9 3 4 5 6 8 7 11 10 24 26 10 15 8 5 5 8 4 8 8 29 31 34 39 40 39 39 50 46 46 48 46 45 47 45 48 48 46
15 13 5 13 7 3 4 4 5 5 6 9 10 16 18 14 13 8 11 6 8 4 7 4 7 6 10 19 28 22 22 28 34 37 37 37 40 42 44 43 43 43 42 44
18 15 15 11 3 4 6 3 5 6 3 6 15 23 17 11 7 7 8 7 5 7 10 5 6 8 13 13 19 26 29 33 36 35 39 38 39 39 41 41 41 41 42 41
4 5 6 5 3 4 2 3 2 5 9 10 24 16 11 5 4 7 5 7 7 6 6 5 6 14 14 7 12 22 28 34 37 38 38 40 40 37 37 41 39 39 39 36
3 5 7 5 4 2 2 4 5 12 13 20 24 16 7 7 5 5 7 7 4 4 4 6 6 16 11 9 8 22 28 31 35 37 37 38 38 39 36 35 36 36 36 34
5 5 6 4 4 9 10 10 14 16 15 17 15 8 8 5 2 4 5 3 5 5 5 3 14 13 6 12 20 29 28 30 32 33 34 35 34 34 35 33 33 33 33 31
5 7 8 6 11 6 5 8 14 12 18 15 8 5 2 5 8 4 7 3 4 2 2 10 14 7 5 12 20 28 28 30 30 30 32 32 32 33 35 34 33 32 32 29
6 6 8 12 11 14 11 13 12 16 17 6 4 4 7 6 2 4 5 6 8 5 1 5 10 4 10 16 21 35 34 27 29 31 30 28 29 31 32 33 30 29 28 28
Wind_Direction_850mb
358 360 4 358 358 356 3 349 345 348 4 25 23 354 335 312 335 330 315 294 296 321 332 319 303 326 269 330 350 320 270 297 301 287 213 121 220 220 199 206 205 216 209 166
356 1 4 359 358 2 355 349 320 350 12 18 357 339 320 345 331 336 316 299 278 292 322 317 288 328 319 332 336 305 337 272 299 163 84 167 202 226 227 212 217 200 205 128
356 358 1 360 358 3 7 352 341 354 344 6 355 335 326 332 338 320 336 296 300 314 320 306 298 300 311 330 311 318 282 249 262 290 341 98 198 202 217 227 211 233 230 134
353 356 354 356 358 358 15 15 11 326 320 339 331 323 312 332 347 314 316 297 307 318 301 309 272 322 319 317 321 353 30 287 283 275 280 190 207 223 205 223 209 225 152 153
349 356 347 350 358 0 3 357 332 307 283 320 317 319 325 324 323 318 301 298 307 307 293 278 288 293 293 279 329 357 352 274 308 281 255 231 229 223 189 206 221 219 149 128
341 342 347 344 354 359 343 338 330 282 294 325 324 324 324 306 319 312 300 300 300 298 299 296 281 274 263 257 278 302 284 286 305 278 295 159 187 198 185 192 201 197 238 134
337 338 352 345 347 351 336 331 324 307 297 318 317 307 307 315 314 305 298 300 295 286 309 303 285 260 244 234 235 230 258 297 287 302 280 152 149 166 176 157 181 91 105 127
333 335 351 336 331 339 333 327 319 279 287 311 298 323 314 310 310 306 298 306 309 308 310 298 312 201 209 214 219 214 219 246 280 303 279 119 155 166 184 175 152 141 129 119
328 330 333 324 315 326 325 315 318 288 296 263 324 314 307 306 317 310 305 320 323 315 295 290 306 343 348 124 131 224 198 211 259 356 250 86 156 157 181 142 165 153 131 128
324 321 328 329 320 316 316 316 314 287 269 283 309 304 300 299 289 277 303 337 330 334 308 303 324 311 357 335 24 151 167 189 232 246 50 57 9 292 118 159 157 136 135 138
321 319 324 332 332 319 310 302 313 292 278 292 281 292 292 288 284 286 302 325 69 294 341 353 347 298 327 316 350 287 132 278 314 345 87 86 341 243 181 106 132 138 135 130
317 314 318 325 324 323 310 302 304 294 287 276 295 288 278 269 278 287 268 266 297 273 317 358 305 275 292 310 10 216 31 26 53 39 39 328 12 72 79 120 122 117 121 123
314 310 315 325 326 317 305 302 301 294 300 310 282 299 298 290 283 263 251 273 267 265 286 282 271 280 278 319 19 88 62 35 57 103 7 46 71 87 92 96 99 114 116 122
313 307 313 322 323 318 302 299 295 296 287 280 293 315 306 302 303 273 272 283 298 288 289 237 269 281 301 11 42 38 345 15 45 79 136 60 58 80 94 101 105 108 113 120
309 308 314 320 321 312 307 297 285 271 257 295 299 311 323 340 330 316 292 288 283 290 294 286 279 288 306 3 56 28 340 320 51 82 63 82 72 86 97 100 102 110 111 108
308 311 317 321 319 311 335 284 252 333 294 307 296 312 302 336 348 359 6 348 331 287 292 301 290 9 46 45 53 349 22 56 80 90 86 85 87 88 98 102 102 103 105 107
314 315 318 319 306 278 234 307 298 309 312 267 287 295 311 330 351 353 9 356 350 1 14 10 20 33 42 47 43 352 30 82 95 103 95 72 85 91 99 102 103 103 102 103
317 318 316 311 293 268 274 251 272 302 305 268 283 292 316 357 346 356 4 333 7 16 357 8 5 28 40 44 33 82 83 82 82 90 95 99 101 99 99 102 105 101 101 104
324 322 321 309 248 255 256 266 270 285 269 298 287 312 325 341 346 345 354 341 25 15 9 13 9 14 45 25 50 67 69 92 105 101 102 103 99 101 102 103 103 103 105 106
338 5 334 239 200 299 296 345 200 235 234 241 266 290 290 332 342 355 354 309 33 29 45 51 44 19 36 55 67 77 81 89 102 105 103 104 102 103 103 103 107 109 113 114
5 348 331 302 319 15 247 245 235 202 242 213 263 317 326 351 338 325 342 308 337 35 35 14 56 42 23 59 74 50 73 97 101 101 105 106 109 111 109 108 109 110 114 115
324 310 315 335 323 250 264 246 198 236 322 316 325 336 333 325 325 284 1 331 319 46 331 30 63 17 62 94 56 75 93 98 101 104 106 108 109 113 113 115 115 117 117 117
342 290 273 245 238 258 355 346 275 277 348 340 333 334 350 301 305 283 314 341 50 285 39 67 62 35 68 105 76 94 101 106 107 107 109 111 111 113 116 116 117 119 118 119
314 275 271 267 191 213 40 306 305 300 307 319 324 332 321 352 308 339 313 21 303 62 57 75 64 32 38 121 123 128 118 115 113 113 114 114 115 115 116 118 122 123 121 119
266 258 258 223 351 297 293 296 291 285 290 311 325 297 315 9 303 359 329 55 56 27 49 348 4 339 325 138 146 149 142 136 126 124 121 118 119 121 121 123 125 125 123 123
241 239 260 253 268 274 275 317 314 317 322 310 249 246 277 19 335 4 41 321 47 75 280 311 323 318 178 164 160 163 154 150 142 136 130 126 127 130 128 128 128 128 128 128
237 256 268 288 290 276 291 308 306 312 312 321 329 35 43 317 302 75 15 14 348 17 286 353 5 337 159 166 164 169 158 151 154 148 141 134 132 132 131 130 132 131 131 129